| time (UTC) | temp C | wind direction | speed KPH | gust KPH | rain 1hr cm | rain 24hr cm | rain mn cm | humidity % | barometer mb |
| 20260504175605 | 16 | 178 | 17.7 | 38.6 | 0.00 | 0.00 | 0.00 | 80 | 1014.1 |
| 20260504175104 | 16 | 173 | 17.7 | 32.2 | 0.00 | 0.00 | 0.00 | 81 | 1014.1 |
| 20260504174603 | 16 | 168 | 22.5 | 33.8 | 0.00 | 0.00 | 0.00 | 81 | 1014.2 |
| 20260504174104 | 16 | 179 | 20.9 | 33.8 | 0.00 | 0.00 | 0.00 | 81 | 1014.4 |
| 20260504173604 | 16 | 188 | 19.3 | 30.6 | 0.00 | 0.00 | 0.00 | 81 | 1014.4 |
| 20260504173104 | 16 | 169 | 20.9 | 32.2 | 0.00 | 0.00 | 0.00 | 81 | 1014.5 |
| 20260504172604 | 16 | 173 | 20.9 | 32.2 | 0.00 | 0.00 | 0.00 | 80 | 1014.5 |
| 20260504172104 | 16 | 171 | 20.9 | 32.2 | 0.00 | 0.00 | 0.00 | 81 | 1014.5 |
| 20260504171604 | 16 | 178 | 19.3 | 33.8 | 0.00 | 0.00 | 0.00 | 82 | 1014.6 |
| 20260504171124 | 16 | 175 | 19.3 | 33.8 | 0.00 | 0.00 | 0.00 | 82 | 1014.7 |
| 20260504170604 | 15 | 181 | 17.7 | 30.6 | 0.00 | 0.00 | 0.00 | 83 | 1014.7 |
| 20260504170105 | 15 | 180 | 17.7 | 32.2 | 0.00 | 0.00 | 0.00 | 82 | 1014.7 |
| 20260504160103 | 15 | 186 | 17.7 | 32.2 | 0.00 | 0.00 | 0.00 | 83 | 1015.3 |
| 20260504151104 | 15 | 185 | 16.1 | 30.6 | 0.00 | 0.00 | 0.00 | 82 | 1015.6 |
| 20260504150603 | 15 | 183 | 19.3 | 29.0 | 0.00 | 0.00 | 0.00 | 82 | 1015.7 |
| 20260504150104 | 15 | 180 | 20.9 | 32.2 | 0.00 | 0.00 | 0.00 | 82 | 1015.6 |
| 20260504141104 | 14 | 184 | 19.3 | 33.8 | 0.00 | 0.00 | 0.00 | 84 | 1015.8 |
| 20260504140604 | 14 | 180 | 17.7 | 33.8 | 0.00 | 0.00 | 0.00 | 84 | 1015.9 |
| 20260504140104 | 14 | 180 | 16.1 | 30.6 | 0.00 | 0.00 | 0.00 | 84 | 1016.0 |
| 20260504130624 | 14 | 198 | 16.1 | 30.6 | 0.00 | 0.00 | 0.00 | 81 | 1016.3 |
| 20260504130103 | 13 | 183 | 14.5 | 27.4 | 0.00 | 0.00 | 0.00 | 81 | 1016.4 |
| 20260504120124 | 13 | 205 | 11.3 | 24.1 | 0.00 | 0.00 | 0.00 | 79 | 1016.7 |
| 20260504110604 | 11 | 211 | 14.5 | 29.0 | 0.00 | 0.00 | 0.00 | 84 | 1017.0 |
| 20260504110103 | 11 | 218 | 19.3 | 29.0 | 0.00 | 0.00 | 0.00 | 84 | 1017.0 |
| 20260504100603 | 10 | 217 | 17.7 | 27.4 | 0.00 | 0.00 | 0.00 | 81 | 1016.9 |
| 20260504100103 | 10 | 216 | 17.7 | 29.0 | 0.00 | 0.00 | 0.00 | 81 | 1016.9 |
| 20260504090104 | 10 | 215 | 16.1 | 27.4 | 0.00 | 0.00 | 0.00 | 78 | 1016.8 |
| 20260504081603 | 10 | 224 | 17.7 | 25.7 | 0.00 | 0.00 | 0.00 | 81 | 1016.6 |
| 20260504081103 | 10 | 217 | 19.3 | 25.7 | 0.00 | 0.00 | 0.00 | 82 | 1016.6 |
| 20260504080604 | 10 | 226 | 19.3 | 27.4 | 0.00 | 0.00 | 0.00 | 82 | 1016.6 |
| 20260504070103 | 11 | 234 | 14.5 | 25.7 | 0.00 | 0.00 | 0.00 | 82 | 1016.2 |
| 20260504060125 | 11 | 239 | 14.5 | 22.5 | 0.00 | 0.00 | 0.00 | 83 | 1016.0 |
| 20260504050603 | 11 | 235 | 16.1 | 22.5 | 0.00 | 0.00 | 0.00 | 81 | 1015.8 |
| 20260504050103 | 11 | 235 | 14.5 | 24.1 | 0.00 | 0.00 | 0.00 | 81 | 1015.8 |
| 20260504045603 | 11 | 230 | 17.7 | 24.1 | 0.00 | 0.00 | 0.00 | 81 | 1015.8 |
| 20260504045103 | 11 | 229 | 16.1 | 22.5 | 0.00 | 0.00 | 0.00 | 81 | 1015.7 |
| 20260504044606 | 11 | 231 | 16.1 | 25.7 | 0.00 | 0.00 | 0.00 | 81 | 1015.7 |
| 20260504044103 | 11 | 229 | 16.1 | 25.7 | 0.00 | 0.00 | 0.00 | 80 | 1015.8 |
| 20260504043625 | 11 | 226 | 14.5 | 24.1 | 0.00 | 0.00 | 0.00 | 80 | 1015.8 |
| 20260504043103 | 11 | 217 | 16.1 | 24.1 | 0.00 | 0.00 | 0.00 | 79 | 1015.8 |
| 20260504042103 | 11 | 229 | 16.1 | 27.4 | 0.00 | 0.00 | 0.00 | 79 | 1015.7 |
| 20260504041603 | 11 | 229 | 19.3 | 27.4 | 0.00 | 0.00 | 0.00 | 78 | 1015.7 |
| 20260504041103 | 11 | 226 | 14.5 | 19.3 | 0.00 | 0.00 | 0.00 | 78 | 1015.7 |
| 20260504040604 | 11 | 221 | 14.5 | 20.9 | 0.00 | 0.00 | 0.00 | 78 | 1015.7 |
| 20260504040124 | 11 | 222 | 14.5 | 20.9 | 0.00 | 0.00 | 0.00 | 78 | 1015.6 |
| 20260504035603 | 11 | 226 | 12.9 | 22.5 | 0.00 | 0.00 | 0.00 | 79 | 1015.5 |
| 20260504035104 | 11 | 228 | 12.9 | 22.5 | 0.00 | 0.00 | 0.00 | 77 | 1015.5 |
| 20260504034103 | 11 | 223 | 12.9 | 19.3 | 0.00 | 0.00 | 0.00 | 75 | 1015.4 |
| 20260504033603 | 11 | 226 | 12.9 | 20.9 | 0.00 | 0.00 | 0.00 | 75 | 1015.4 |
| 20260504033103 | 11 | 221 | 11.3 | 20.9 | 0.00 | 0.00 | 0.00 | 75 | 1015.4 |
| 20260504032604 | 11 | 226 | 12.9 | 20.9 | 0.00 | 0.00 | 0.00 | 74 | 1015.4 |
| 20260504032103 | 11 | 230 | 16.1 | 20.9 | 0.00 | 0.00 | 0.00 | 74 | 1015.4 |
| 20260504031603 | 11 | 233 | 12.9 | 22.5 | 0.00 | 0.00 | 0.00 | 74 | 1015.4 |
| 20260504031103 | 11 | 238 | 12.9 | 22.5 | 0.00 | 0.00 | 0.00 | 74 | 1015.4 |
| 20260504030603 | 11 | 228 | 16.1 | 19.3 | 0.00 | 0.00 | 0.00 | 73 | 1015.4 |
| 20260504025603 | 11 | 232 | 12.9 | 20.9 | 0.00 | 0.00 | 0.00 | 72 | 1015.3 |
| 20260504025146 | 11 | 237 | 12.9 | 20.9 | 0.00 | 0.00 | 0.00 | 72 | 1015.3 |
| 20260504024603 | 11 | 240 | 14.5 | 20.9 | 0.00 | 0.00 | 0.00 | 70 | 1015.3 |
| 20260504024103 | 11 | 241 | 14.5 | 20.9 | 0.00 | 0.00 | 0.00 | 71 | 1015.4 |
| 20260504023604 | 11 | 237 | 12.9 | 20.9 | 0.00 | 0.00 | 0.00 | 71 | 1015.3 |
| 20260504023104 | 11 | 233 | 12.9 | 19.3 | 0.00 | 0.00 | 0.00 | 72 | 1015.3 |
| 20260504022624 | 11 | 234 | 12.9 | 20.9 | 0.00 | 0.00 | 0.00 | 73 | 1015.3 |
| 20260504022103 | 11 | 230 | 14.5 | 20.9 | 0.00 | 0.00 | 0.00 | 74 | 1015.3 |
| 20260504021604 | 11 | 224 | 14.5 | 20.9 | 0.00 | 0.00 | 0.00 | 74 | 1015.3 |
| 20260504021103 | 11 | 230 | 12.9 | 19.3 | 0.00 | 0.00 | 0.00 | 74 | 1015.3 |
| 20260504020604 | 11 | 231 | 12.9 | 19.3 | 0.00 | 0.00 | 0.00 | 74 | 1015.3 |
| 20260504020103 | 11 | 229 | 12.9 | 19.3 | 0.00 | 0.00 | 0.00 | 73 | 1015.3 |
| 20260504015603 | 11 | 231 | 12.9 | 19.3 | 0.00 | 0.00 | 0.00 | 72 | 1015.2 |
| 20260504015104 | 11 | 229 | 12.9 | 19.3 | 0.00 | 0.00 | 0.00 | 71 | 1015.2 |
| 20260504014603 | 11 | 226 | 12.9 | 17.7 | 0.00 | 0.00 | 0.00 | 72 | 1015.2 |
| 20260504014103 | 11 | 233 | 11.3 | 17.7 | 0.00 | 0.00 | 0.00 | 74 | 1015.1 |
| 20260504013603 | 11 | 229 | 11.3 | 17.7 | 0.00 | 0.00 | 0.00 | 74 | 1015.1 |
| 20260504013124 | 11 | 230 | 12.9 | 20.9 | 0.00 | 0.00 | 0.00 | 73 | 1015.1 |
| 20260504012604 | 12 | 225 | 12.9 | 20.9 | 0.00 | 0.00 | 0.00 | 73 | 1015.0 |
| 20260504012103 | 11 | 229 | 14.5 | 19.3 | 0.00 | 0.00 | 0.00 | 70 | 1015.0 |
| 20260504011604 | 11 | 228 | 11.3 | 17.7 | 0.00 | 0.00 | 0.00 | 72 | 1015.0 |
| 20260504011103 | 12 | 234 | 12.9 | 16.1 | 0.00 | 0.00 | 0.00 | 74 | 1014.9 |
| 20260504010603 | 12 | 234 | 9.7 | 17.7 | 0.00 | 0.00 | 0.00 | 71 | 1014.8 |
| 20260504005604 | 12 | 232 | 12.9 | 17.7 | 0.00 | 0.00 | 0.00 | 67 | 1014.5 |
| 20260504005103 | 12 | 234 | 9.7 | 14.5 | 0.00 | 0.00 | 0.00 | 69 | 1014.5 |
| 20260504004606 | 12 | 246 | 11.3 | 16.1 | 0.00 | 0.00 | 0.00 | 69 | 1014.5 |
| 20260504004124 | 12 | 247 | 12.9 | 16.1 | 0.00 | 0.00 | 0.00 | 68 | 1014.4 |
| 20260504003603 | 12 | 243 | 11.3 | 14.5 | 0.00 | 0.00 | 0.00 | 67 | 1014.4 |
| 20260504003104 | 12 | 235 | 9.7 | 16.1 | 0.00 | 0.00 | 0.00 | 66 | 1014.3 |
| 20260504002603 | 12 | 236 | 8.0 | 16.1 | 0.00 | 0.00 | 0.00 | 65 | 1014.3 |
| 20260504002103 | 12 | 246 | 12.9 | 17.7 | 0.00 | 0.00 | 0.00 | 64 | 1014.2 |
| 20260504001603 | 12 | 249 | 11.3 | 17.7 | 0.00 | 0.00 | 0.00 | 67 | 1014.2 |
| 20260504001104 | 12 | 252 | 12.9 | 19.3 | 0.00 | 0.00 | 0.00 | 68 | 1014.1 |
| 20260504000603 | 12 | 257 | 14.5 | 19.3 | 0.00 | 0.00 | 0.00 | 65 | 1014.2 |
| 20260504000103 | 13 | 260 | 16.1 | 20.9 | 0.00 | 0.00 | 0.00 | 64 | 1014.1 |
| 20260503235603 | 13 | 264 | 14.5 | 20.9 | 0.00 | 0.00 | 0.00 | 65 | 1014.0 |
| 20260503235104 | 13 | 268 | 17.7 | 27.4 | 0.00 | 0.00 | 0.00 | 61 | 1013.9 |
| 20260503234603 | 13 | 268 | 19.3 | 27.4 | 0.00 | 0.00 | 0.00 | 61 | 1013.8 |
| 20260503234104 | 13 | 265 | 20.9 | 25.7 | 0.00 | 0.00 | 0.00 | 58 | 1013.7 |
| 20260503233603 | 13 | 266 | 16.1 | 24.1 | 0.00 | 0.00 | 0.00 | 62 | 1013.7 |
| 20260503233103 | 13 | 268 | 20.9 | 25.7 | 0.00 | 0.00 | 0.00 | 58 | 1013.7 |
| 20260503232603 | 13 | 269 | 19.3 | 27.4 | 0.00 | 0.00 | 0.00 | 58 | 1013.7 |
| 20260503232103 | 13 | 275 | 22.5 | 27.4 | 0.00 | 0.00 | 0.00 | 57 | 1013.7 |
| 20260503231603 | 13 | 281 | 20.9 | 30.6 | 0.00 | 0.00 | 0.00 | 60 | 1013.7 |
| 20260503231105 | 13 | 282 | 24.1 | 33.8 | 0.00 | 0.00 | 0.00 | 59 | 1013.6 |
| 20260503230603 | 13 | 278 | 25.7 | 33.8 | 0.00 | 0.00 | 0.00 | 56 | 1013.6 |
| 20260503230103 | 14 | 275 | 29.0 | 38.6 | 0.00 | 0.00 | 0.00 | 56 | 1013.6 |
| 20260503225603 | 14 | 280 | 30.6 | 38.6 | 0.00 | 0.00 | 0.00 | 56 | 1013.5 |
| 20260503225124 | 14 | 273 | 29.0 | 37.0 | 0.00 | 0.00 | 0.00 | 53 | 1013.5 |
| 20260503224604 | 14 | 276 | 29.0 | 38.6 | 0.00 | 0.00 | 0.00 | 57 | 1013.5 |
| 20260503223603 | 14 | 283 | 29.0 | 41.8 | 0.00 | 0.00 | 0.00 | 55 | 1013.5 |
| 20260503223103 | 14 | 288 | 32.2 | 46.7 | 0.00 | 0.00 | 0.00 | 56 | 1013.4 |
| 20260503222603 | 14 | 290 | 38.6 | 46.7 | 0.00 | 0.00 | 0.00 | 53 | 1013.3 |
| 20260503222103 | 14 | 276 | 33.8 | 40.2 | 0.00 | 0.00 | 0.00 | 54 | 1013.4 |
| 20260503221603 | 14 | 290 | 27.4 | 41.8 | 0.00 | 0.00 | 0.00 | 55 | 1013.4 |
| 20260503221103 | 14 | 290 | 33.8 | 41.8 | 0.00 | 0.00 | 0.00 | 53 | 1013.3 |
| 20260503220103 | 14 | 287 | 37.0 | 43.5 | 0.00 | 0.00 | 0.00 | 51 | 1013.2 |
| 20260503215603 | 15 | 286 | 30.6 | 45.1 | 0.00 | 0.00 | 0.00 | 51 | 1013.2 |
| 20260503215103 | 15 | 290 | 37.0 | 46.7 | 0.00 | 0.00 | 0.00 | 51 | 1013.2 |
| 20260503214603 | 15 | 285 | 29.0 | 46.7 | 0.00 | 0.00 | 0.00 | 50 | 1013.1 |
| 20260503214103 | 14 | 295 | 24.1 | 33.8 | 0.00 | 0.00 | 0.00 | 51 | 1013.1 |
| 20260503213602 | 14 | 299 | 22.5 | 35.4 | 0.00 | 0.00 | 0.00 | 49 | 1013.1 |
| 20260503213105 | 15 | 302 | 22.5 | 40.2 | 0.00 | 0.00 | 0.00 | 53 | 1013.0 |
| 20260503212603 | 15 | 299 | 22.5 | 48.3 | 0.00 | 0.00 | 0.00 | 50 | 1012.9 |
| 20260503212125 | 14 | 287 | 37.0 | 48.3 | 0.00 | 0.00 | 0.00 | 51 | 1012.9 |
| 20260503211603 | 15 | 282 | 35.4 | 46.7 | 0.00 | 0.00 | 0.00 | 51 | 1012.9 |
| 20260503211103 | 14 | 284 | 37.0 | 48.3 | 0.00 | 0.00 | 0.00 | 52 | 1013.0 |
| 20260503210604 | 14 | 294 | 29.0 | 48.3 | 0.00 | 0.00 | 0.00 | 53 | 1013.1 |
| 20260503205604 | 14 | 291 | 29.0 | 49.9 | 0.00 | 0.00 | 0.00 | 51 | 1013.0 |
| 20260503205124 | 14 | 300 | 29.0 | 49.9 | 0.00 | 0.00 | 0.00 | 51 | 1013.1 |
| 20260503204603 | 14 | 297 | 25.7 | 43.5 | 0.00 | 0.00 | 0.00 | 51 | 1013.0 |
| 20260503204103 | 14 | 292 | 32.2 | 49.9 | 0.00 | 0.00 | 0.00 | 51 | 1013.0 |
| 20260503203624 | 14 | 273 | 33.8 | 49.9 | 0.00 | 0.00 | 0.00 | 54 | 1013.0 |
| 20260503203103 | 14 | 290 | 27.4 | 38.6 | 0.00 | 0.00 | 0.00 | 52 | 1013.0 |
| 20260503202603 | 14 | 285 | 30.6 | 45.1 | 0.00 | 0.00 | 0.00 | 50 | 1013.0 |
| 20260503202103 | 14 | 285 | 37.0 | 45.1 | 0.00 | 0.00 | 0.00 | 52 | 1012.9 |
| 20260503201604 | 14 | 281 | 33.8 | 43.5 | 0.00 | 0.00 | 0.00 | 54 | 1012.9 |
| 20260503201105 | 14 | 297 | 24.1 | 46.7 | 0.00 | 0.00 | 0.00 | 56 | 1012.8 |
| 20260503200603 | 13 | 274 | 30.6 | 46.7 | 0.00 | 0.00 | 0.00 | 53 | 1013.0 |
| 20260503195603 | 13 | 286 | 33.8 | 48.3 | 0.00 | 0.00 | 0.00 | 55 | 1013.0 |
| 20260503195104 | 13 | 293 | 33.8 | 48.3 | 0.00 | 0.00 | 0.00 | 50 | 1013.1 |
| 20260503194604 | 13 | 293 | 29.0 | 40.2 | 0.00 | 0.00 | 0.00 | 53 | 1013.2 |
| 20260503194103 | 13 | 296 | 25.7 | 45.1 | 0.00 | 0.00 | 0.00 | 56 | 1013.2 |
| 20260503193603 | 13 | 287 | 30.6 | 45.1 | 0.00 | 0.00 | 0.00 | 54 | 1013.2 |
| 20260503193103 | 13 | 294 | 32.2 | 45.1 | 0.00 | 0.00 | 0.00 | 55 | 1013.2 |
| 20260503192603 | 13 | 300 | 29.0 | 46.7 | 0.00 | 0.00 | 0.00 | 56 | 1013.3 |
| 20260503192103 | 13 | 294 | 37.0 | 51.5 | 0.00 | 0.00 | 0.00 | 56 | 1013.3 |
| 20260503191604 | 13 | 295 | 33.8 | 51.5 | 0.00 | 0.00 | 0.00 | 56 | 1013.4 |
| 20260503191103 | 13 | 296 | 38.6 | 49.9 | 0.00 | 0.00 | 0.00 | 58 | 1013.3 |
| 20260503190625 | 13 | 305 | 22.5 | 43.5 | 0.00 | 0.00 | 0.00 | 57 | 1013.3 |
| 20260503190125 | 13 | 293 | 25.7 | 41.8 | 0.00 | 0.00 | 0.00 | 56 | 1013.5 |
| 20260503185603 | 12 | 298 | 22.5 | 43.5 | 0.00 | 0.00 | 0.00 | 56 | 1013.5 |
| 20260503185103 | 13 | 295 | 35.4 | 43.5 | 0.00 | 0.00 | 0.00 | 58 | 1013.5 |
| 20260503184603 | 12 | 284 | 30.6 | 37.0 | 0.00 | 0.00 | 0.00 | 58 | 1013.6 |
| 20260503184103 | 12 | 318 | 19.3 | 38.6 | 0.00 | 0.00 | 0.00 | 56 | 1013.7 |
| 20260503183603 | 12 | 297 | 25.7 | 46.7 | 0.00 | 0.00 | 0.00 | 57 | 1013.7 |
| 20260503183105 | 12 | 289 | 27.4 | 48.3 | 0.00 | 0.00 | 0.00 | 54 | 1013.7 |
| 20260503182625 | 12 | 298 | 24.1 | 48.3 | 0.00 | 0.00 | 0.00 | 58 | 1013.7 |
| 20260503182103 | 13 | 292 | 32.2 | 46.7 | 0.00 | 0.00 | 0.00 | 57 | 1013.7 |
| 20260503181604 | 13 | 287 | 38.6 | 46.7 | 0.00 | 0.00 | 0.00 | 60 | 1013.7 |
| 20260503181103 | 12 | 301 | 17.7 | 46.7 | 0.00 | 0.00 | 0.00 | 57 | 1013.8 |
| 20260503180603 | 12 | 321 | 19.3 | 46.7 | 0.00 | 0.00 | 0.00 | 60 | 1013.8 |